Location: Umburanas
(4.5000°S, 37.9667°W)
Time: 23:17:50
(UTC+00:00)

Cosmos 2219 Rocket - Pass Details

Date: 19 November 2019
Orbit: 827 x 847 km, 71.0° (Epoch: 07 December)

Event Time Altitude Azimuth Distance (km) Brightness Sun altitude
Rises 21:26:09 0° 180° (S) 3,370 5.6 -14.6°
Reaches altitude 10° 21:28:48 10° 171° (S) 2,433 4.7 -15.2°
Maximum altitude 21:33:50 35° 106° (ESE) 1,313 2.8 -16.4°
Enters shadow 21:35:48 27° 68° (ENE) 1,536 2.9 -16.8°
